Time,TemperatureF,DewpointF,PressureIn,WindDirection,WindDirectionDegrees,WindSpeedMPH,WindSpeedGustMPH,Humidity,HourlyPrecipIn,Conditions,Clouds,dailyrainin,SoftwareType,DateUTC
2013-12-14 00:07:00,74.8,66.4,30.02,SW,225,2.7,-999.0,75,-99.99,,,0.00,Acu-Link.com,2013-12-14 04:07:00,
2013-12-14 00:23:00,74.7,65.8,30.02,SSE,157,2.7,-999.0,74,-99.99,,,0.00,Acu-Link.com,2013-12-14 04:23:00,
2013-12-14 00:38:00,74.7,65.8,30.02,South,180,0.0,-999.0,74,-99.99,,,0.00,Acu-Link.com,2013-12-14 04:38:00,
2013-12-14 00:53:00,74.7,65.8,30.02,SSW,202,1.1,-999.0,74,-99.99,,,0.00,Acu-Link.com,2013-12-14 04:53:00,
2013-12-14 01:08:00,74.3,65.8,30.01,South,180,1.1,-999.0,75,-99.99,,,0.00,Acu-Link.com,2013-12-14 05:08:00,
2013-12-14 01:23:00,74.5,65.6,30.02,SSW,202,1.6,-999.0,74,-99.99,,,0.00,Acu-Link.com,2013-12-14 05:23:00,
2013-12-14 01:39:00,73.9,65.5,30.00,SSW,202,1.6,-999.0,75,-99.99,,,0.00,Acu-Link.com,2013-12-14 05:39:00,
2013-12-14 01:54:00,74.1,65.7,29.99,West,270,0.0,-999.0,75,-99.99,,,0.00,Acu-Link.com,2013-12-14 05:54:00,
2013-12-14 02:09:00,73.9,65.9,29.99,South,180,1.1,-999.0,76,-99.99,,,0.00,Acu-Link.com,2013-12-14 06:09:00,
2013-12-14 02:24:00,73.6,65.5,29.99,SSW,202,2.2,-999.0,76,-99.99,,,0.00,Acu-Link.com,2013-12-14 06:24:00,
2013-12-14 02:39:00,73.0,65.4,29.98,WSW,247,0.0,-999.0,77,-99.99,,,0.00,Acu-Link.com,2013-12-14 06:39:00,
2013-12-14 02:55:00,72.7,65.4,29.98,WSW,247,0.0,-999.0,78,-99.99,,,0.00,Acu-Link.com,2013-12-14 06:55:00,
2013-12-14 03:10:00,72.7,65.4,29.98,West,270,0.0,-999.0,78,-99.99,,,0.00,Acu-Link.com,2013-12-14 07:10:00,
2013-12-14 03:25:00,72.7,65.8,29.97,SW,225,1.1,-999.0,79,-99.99,,,0.00,Acu-Link.com,2013-12-14 07:25:00,
2013-12-14 03:40:00,72.1,65.3,29.97,SSE,157,0.0,-999.0,79,-99.99,,,0.00,Acu-Link.com,2013-12-14 07:40:00,
2013-12-14 03:56:00,71.8,65.3,29.97,SW,225,2.2,-999.0,80,-99.99,,,0.00,Acu-Link.com,2013-12-14 07:56:00,
2013-12-14 04:11:00,72.1,65.6,29.96,WSW,247,0.0,-999.0,80,-99.99,,,0.00,Acu-Link.com,2013-12-14 08:11:00,
2013-12-14 04:26:00,72.7,65.8,29.96,WSW,247,0.0,-999.0,79,-99.99,,,0.00,Acu-Link.com,2013-12-14 08:26:00,
2013-12-14 04:41:00,72.3,65.4,29.97,ESE,112,3.8,-999.0,79,-99.99,,,0.00,Acu-Link.com,2013-12-14 08:41:00,
2013-12-14 04:56:00,72.5,65.6,29.97,ESE,112,2.2,-999.0,79,-99.99,,,0.00,Acu-Link.com,2013-12-14 08:56:00,
2013-12-14 05:12:00,72.7,65.8,29.97,South,180,0.0,-999.0,79,-99.99,,,0.00,Acu-Link.com,2013-12-14 09:12:00,
2013-12-14 05:27:00,72.7,66.1,29.97,SSW,202,1.1,-999.0,80,-99.99,,,0.00,Acu-Link.com,2013-12-14 09:27:00,
2013-12-14 05:42:00,72.9,66.3,29.97,SSW,202,2.7,-999.0,80,-99.99,,,0.00,Acu-Link.com,2013-12-14 09:42:00,
2013-12-14 05:57:00,72.7,66.5,29.97,SSE,157,2.2,-999.0,81,-99.99,,,0.00,Acu-Link.com,2013-12-14 09:57:00,
2013-12-14 06:12:00,72.7,66.9,29.98,ESE,112,1.6,-999.0,82,-99.99,,,0.00,Acu-Link.com,2013-12-14 10:12:00,
2013-12-14 06:28:00,72.9,67.0,29.98,SSW,202,1.1,-999.0,82,-99.99,,,0.00,Acu-Link.com,2013-12-14 10:28:00,
2013-12-14 06:43:00,72.5,67.0,29.98,West,270,0.0,-999.0,83,-99.99,,,0.00,Acu-Link.com,2013-12-14 10:43:00,
2013-12-14 06:58:00,72.3,67.2,29.99,SSW,202,0.0,-999.0,84,-99.99,,,0.00,Acu-Link.com,2013-12-14 10:58:00,
2013-12-14 07:13:00,72.9,67.7,30.00,West,270,0.0,-999.0,84,-99.99,,,0.00,Acu-Link.com,2013-12-14 11:13:00,
2013-12-14 07:29:00,73.4,68.3,30.00,SW,225,1.6,-999.0,84,-99.99,,,0.00,Acu-Link.com,2013-12-14 11:29:00,
2013-12-14 07:44:00,74.1,68.3,30.01,West,270,1.6,-999.0,82,-99.99,,,0.00,Acu-Link.com,2013-12-14 11:44:00,
2013-12-14 07:59:00,74.8,68.6,30.01,SW,225,0.0,-999.0,81,-99.99,,,0.00,Acu-Link.com,2013-12-14 11:59:00,
2013-12-14 08:14:00,77.2,69.4,30.03,SSW,202,4.3,-999.0,77,-99.99,,,0.00,Acu-Link.com,2013-12-14 12:14:00,
2013-12-14 08:29:00,78.3,70.4,30.03,SSE,157,3.8,-999.0,77,-99.99,,,0.00,Acu-Link.com,2013-12-14 12:29:00,
2013-12-14 08:45:00,80.2,72.0,30.04,East,90,8.3,-999.0,76,-99.99,,,0.00,Acu-Link.com,2013-12-14 12:45:00,
2013-12-14 09:00:00,80.8,71.7,30.04,ESE,112,5.8,-999.0,74,-99.99,,,0.00,Acu-Link.com,2013-12-14 13:00:00,
2013-12-14 09:15:00,81.5,71.6,30.04,ESE,112,11.9,-999.0,72,-99.99,,,0.00,Acu-Link.com,2013-12-14 13:15:00,
2013-12-14 09:30:00,82.2,71.9,30.04,ESE,112,5.8,-999.0,71,-99.99,,,0.00,Acu-Link.com,2013-12-14 13:30:00,
2013-12-14 09:45:00,83.1,72.3,30.05,East,90,7.8,-999.0,70,-99.99,,,0.00,Acu-Link.com,2013-12-14 13:45:00,
2013-12-14 10:01:00,82.8,72.0,30.04,South,180,6.7,-999.0,70,-99.99,,,0.00,Acu-Link.com,2013-12-14 14:01:00,
2013-12-14 10:16:00,83.7,72.0,30.04,ESE,112,9.4,-999.0,68,-99.99,,,0.00,Acu-Link.com,2013-12-14 14:16:00,
2013-12-14 10:31:00,84.0,71.9,30.04,SE,135,7.4,-999.0,67,-99.99,,,0.00,Acu-Link.com,2013-12-14 14:31:00,
2013-12-14 10:46:00,84.0,72.3,30.04,ESE,112,9.4,-999.0,68,-99.99,,,0.00,Acu-Link.com,2013-12-14 14:46:00,
2013-12-14 11:01:00,83.1,72.7,30.04,ESE,112,6.3,-999.0,71,-99.99,,,0.00,Acu-Link.com,2013-12-14 15:01:00,
2013-12-14 11:17:00,81.7,73.7,30.04,ESE,112,4.7,-999.0,77,-99.99,,,0.01,Acu-Link.com,2013-12-14 15:17:00,
2013-12-14 11:32:00,81.3,73.8,30.03,South,180,4.7,-999.0,78,-99.99,,,0.06,Acu-Link.com,2013-12-14 15:32:00,
2013-12-14 11:47:00,82.8,74.4,30.03,East,90,7.8,-999.0,76,-99.99,,,0.06,Acu-Link.com,2013-12-14 15:47:00,
2013-12-14 12:02:00,83.5,74.3,30.02,South,180,10.3,-999.0,74,-99.99,,,0.06,Acu-Link.com,2013-12-14 16:02:00,
2013-12-14 12:18:00,83.7,73.7,30.01,ESE,112,9.8,-999.0,72,-99.99,,,0.06,Acu-Link.com,2013-12-14 16:18:00,
2013-12-14 12:33:00,84.4,73.5,30.00,East,90,8.3,-999.0,70,-99.99,,,0.06,Acu-Link.com,2013-12-14 16:33:00,
2013-12-14 12:48:00,84.9,73.2,30.00,East,90,4.7,-999.0,68,-99.99,,,0.06,Acu-Link.com,2013-12-14 16:48:00,
2013-12-14 13:03:00,84.7,73.8,29.99,ESE,112,8.9,-999.0,70,-99.99,,,0.06,Acu-Link.com,2013-12-14 17:03:00,
2013-12-14 13:18:00,84.7,73.4,29.98,East,90,8.3,-999.0,69,-99.99,,,0.06,Acu-Link.com,2013-12-14 17:18:00,
2013-12-14 13:34:00,85.1,72.9,29.97,ENE,67,11.9,-999.0,67,-99.99,,,0.06,Acu-Link.com,2013-12-14 17:34:00,
2013-12-14 13:49:00,79.7,73.0,29.97,SE,135,9.8,-999.0,80,-99.99,,,0.09,Acu-Link.com,2013-12-14 17:49:00,
2013-12-14 14:04:00,81.7,74.1,29.97,East,90,6.7,-999.0,78,-99.99,,,0.10,Acu-Link.com,2013-12-14 18:04:00,
2013-12-14 14:19:00,82.2,73.9,29.97,NE,45,11.0,-999.0,76,-99.99,,,0.10,Acu-Link.com,2013-12-14 18:19:00,
2013-12-14 14:34:00,81.9,73.5,29.96,SSE,157,9.4,-999.0,76,-99.99,,,0.10,Acu-Link.com,2013-12-14 18:34:00,
2013-12-14 14:50:00,82.4,73.3,29.96,ESE,112,10.3,-999.0,74,-99.99,,,0.10,Acu-Link.com,2013-12-14 18:50:00,
2013-12-14 15:05:00,83.1,73.5,29.96,SE,135,12.5,-999.0,73,-99.99,,,0.10,Acu-Link.com,2013-12-14 19:05:00,
2013-12-14 15:20:00,82.6,73.4,29.96,ESE,112,9.8,-999.0,74,-99.99,,,0.10,Acu-Link.com,2013-12-14 19:20:00,
2013-12-14 15:35:00,83.3,72.9,29.95,ESE,112,11.4,-999.0,71,-99.99,,,0.10,Acu-Link.com,2013-12-14 19:35:00,
2013-12-14 15:50:00,83.1,73.1,29.95,ESE,112,8.9,-999.0,72,-99.99,,,0.10,Acu-Link.com,2013-12-14 19:50:00,
2013-12-14 16:06:00,83.1,73.1,29.96,East,90,5.1,-999.0,72,-99.99,,,0.10,Acu-Link.com,2013-12-14 20:06:00,
2013-12-14 16:21:00,82.4,73.3,29.96,East,90,8.3,-999.0,74,-99.99,,,0.10,Acu-Link.com,2013-12-14 20:21:00,
2013-12-14 16:36:00,83.1,73.1,29.96,ESE,112,8.9,-999.0,72,-99.99,,,0.10,Acu-Link.com,2013-12-14 20:36:00,
2013-12-14 16:51:00,82.8,72.8,29.96,ESE,112,6.7,-999.0,72,-99.99,,,0.10,Acu-Link.com,2013-12-14 20:51:00,
2013-12-14 17:07:00,82.2,73.1,29.96,South,180,2.7,-999.0,74,-99.99,,,0.10,Acu-Link.com,2013-12-14 21:07:00,
2013-12-14 17:22:00,81.1,72.4,29.96,ESE,112,8.3,-999.0,75,-99.99,,,0.10,Acu-Link.com,2013-12-14 21:22:00,
2013-12-14 17:37:00,80.6,72.3,29.97,SSE,157,7.4,-999.0,76,-99.99,,,0.10,Acu-Link.com,2013-12-14 21:37:00,
2013-12-14 17:52:00,80.4,72.1,29.97,ESE,112,4.3,-999.0,76,-99.99,,,0.10,Acu-Link.com,2013-12-14 21:52:00,
2013-12-14 18:07:00,80.2,72.0,29.97,South,180,5.1,-999.0,76,-99.99,,,0.10,Acu-Link.com,2013-12-14 22:07:00,
2013-12-14 18:23:00,79.9,71.6,29.97,South,180,6.3,-999.0,76,-99.99,,,0.10,Acu-Link.com,2013-12-14 22:23:00,
2013-12-14 18:38:00,79.9,69.6,29.98,ESE,112,7.4,-999.0,71,-99.99,,,0.10,Acu-Link.com,2013-12-14 22:38:00,
2013-12-14 18:53:00,79.9,68.8,29.99,SE,135,4.3,-999.0,69,-99.99,,,0.10,Acu-Link.com,2013-12-14 22:53:00,
2013-12-14 19:08:00,79.7,68.2,29.99,ESE,112,2.2,-999.0,68,-99.99,,,0.10,Acu-Link.com,2013-12-14 23:08:00,
2013-12-14 19:23:00,79.3,67.8,29.99,ESE,112,4.3,-999.0,68,-99.99,,,0.10,Acu-Link.com,2013-12-14 23:23:00,
2013-12-14 19:38:00,79.2,67.7,30.00,ESE,112,6.3,-999.0,68,-99.99,,,0.10,Acu-Link.com,2013-12-14 23:38:00,
2013-12-14 19:54:00,78.8,67.3,30.00,ESE,112,5.1,-999.0,68,-99.99,,,0.10,Acu-Link.com,2013-12-14 23:54:00,
2013-12-14 20:09:00,78.4,67.4,30.01,SE,135,5.1,-999.0,69,-99.99,,,0.10,Acu-Link.com,2013-12-15 00:09:00,
2013-12-14 20:24:00,78.3,67.2,30.01,East,90,3.8,-999.0,69,-99.99,,,0.10,Acu-Link.com,2013-12-15 00:24:00,
2013-12-14 20:39:00,78.1,67.1,30.02,South,180,5.1,-999.0,69,-99.99,,,0.10,Acu-Link.com,2013-12-15 00:39:00,
2013-12-14 20:55:00,77.7,67.1,30.02,ENE,67,2.7,-999.0,70,-99.99,,,0.10,Acu-Link.com,2013-12-15 00:55:00,
2013-12-14 21:10:00,77.4,67.2,30.02,ESE,112,2.7,-999.0,71,-99.99,,,0.10,Acu-Link.com,2013-12-15 01:10:00,
2013-12-14 21:25:00,77.0,66.9,30.02,ESE,112,3.1,-999.0,71,-99.99,,,0.10,Acu-Link.com,2013-12-15 01:25:00,
2013-12-14 21:40:00,76.6,66.9,30.03,SSE,157,2.2,-999.0,72,-99.99,,,0.10,Acu-Link.com,2013-12-15 01:40:00,
2013-12-14 21:55:00,75.7,66.8,30.03,ESE,112,3.1,-999.0,74,-99.99,,,0.10,Acu-Link.com,2013-12-15 01:55:00,
2013-12-14 22:10:00,75.6,66.7,30.03,SW,225,1.6,-999.0,74,-99.99,,,0.10,Acu-Link.com,2013-12-15 02:10:00,
2013-12-14 22:26:00,75.6,66.7,30.03,ESE,112,2.7,-999.0,74,-99.99,,,0.10,Acu-Link.com,2013-12-15 02:26:00,
2013-12-14 22:41:00,75.2,66.7,30.03,South,180,3.8,-999.0,75,-99.99,,,0.10,Acu-Link.com,2013-12-15 02:41:00,
2013-12-14 22:56:00,75.2,67.1,30.03,SSE,157,3.1,-999.0,76,-99.99,,,0.10,Acu-Link.com,2013-12-15 02:56:00,
2013-12-14 23:11:00,75.0,66.9,30.03,SSE,157,0.0,-999.0,76,-99.99,,,0.10,Acu-Link.com,2013-12-15 03:11:00,
2013-12-14 23:26:00,74.8,67.1,30.03,SE,135,0.0,-999.0,77,-99.99,,,0.10,Acu-Link.com,2013-12-15 03:26:00,
2013-12-14 23:42:00,74.8,67.1,30.02,South,180,1.6,-999.0,77,-99.99,,,0.10,Acu-Link.com,2013-12-15 03:42:00,
2013-12-14 23:57:00,75.0,67.3,30.02,South,180,2.7,-999.0,77,-99.99,,,0.10,Acu-Link.com,2013-12-15 03:57:00,